This is the latest recevied weather packets stored in our database for station/object W8LMG. If no packets are shown the sender has not sent any weather packets the latest 10 day(s).
| Time | Temp. | Humidity | Pressure | Rain* | Wind** | Luminosity | Snow |
|---|---|---|---|---|---|---|---|
| 1777783783 | 2.22° C | 81% | 1015.7 hPa | 0 mm | - | 0 W/m² | - |
| 1777783479 | 1.67° C | 81% | 1015.5 hPa | 0 mm | - | 0 W/m² | - |
| 1777783177 | 2.22° C | 80% | 1015.5 hPa | 0 mm | - | 0 W/m² | - |
| 1777782873 | 2.22° C | 79% | 1015.4 hPa | 0 mm | - | 0 W/m² | - |
| 1777782570 | 2.22° C | 80% | 1015.5 hPa | 0 mm | - | 0 W/m² | - |
| 1777782267 | 2.22° C | 80% | 1015.3 hPa | 0 mm | - | 0 W/m² | - |
| 1777781963 | 2.78° C | 79% | 1015.4 hPa | 0 mm | - | 0 W/m² | - |
| 1777781660 | 2.78° C | 79% | 1015.3 hPa | 0 mm | - | 0 W/m² | - |
| 1777781357 | 2.78° C | 78% | 1015.4 hPa | 0 mm | - | 0 W/m² | - |
| 1777781055 | 2.22° C | 79% | 1015.5 hPa | 0 mm | - | 0 W/m² | - |
| 1777780752 | 2.78° C | 79% | 1015.6 hPa | 0 mm | - | 0 W/m² | - |
| 1777780449 | 2.78° C | 80% | 1015.6 hPa | 0 mm | - | 0 W/m² | - |
| 1777780146 | 2.78° C | 79% | 1015.4 hPa | 0 mm | - | 0 W/m² | - |
| 1777779844 | 2.78° C | 80% | 1015.5 hPa | 0 mm | - | 0 W/m² | - |
| 1777779540 | 2.78° C | 79% | 1015.4 hPa | 0 mm | - | 0 W/m² | - |
| 1777779238 | 2.78° C | 79% | 1015.5 hPa | 0 mm | - | 0 W/m² | - |
| 1777778936 | 2.78° C | 78% | 1015.5 hPa | 0 mm | - | 0 W/m² | - |
| 1777778634 | 2.78° C | 77% | 1015.4 hPa | 0 mm | - | 0 W/m² | - |
| 1777778331 | 3.33° C | 75% | 1015.4 hPa | 0 mm | - | 0 W/m² | - |
| 1777778029 | 3.33° C | 74% | 1015.2 hPa | 0 mm | - | 0 W/m² | - |
| 1777777725 | 3.33° C | 73% | 1015.4 hPa | 0 mm | - | 0 W/m² | - |
| 1777777422 | 3.89° C | 72% | 1015.4 hPa | 0 mm | - | 0 W/m² | - |
| 1777777118 | 3.89° C | 72% | 1015.3 hPa | 0 mm | - | 0 W/m² | - |
| 1777776816 | 3.89° C | 65% | 1015.5 hPa | 0 mm | - | 0 W/m² | - |
| 1777776513 | 4.44° C | 69% | 1015.3 hPa | 0 mm | - | 0 W/m² | - |
* Rain latest hour (hover to see other rain measurements)
** Current wind speed in m/s (hover to see current wind gust speed)